Weather History for Ahoskie, NC

Change the Weather History Date:

Thursday, March 7, 2013

  Actual Average (KEMV) Record (KEMV)
Temperature  
Mean Temperature 42 °F -  
Max Temperature 50 °F 58 °F 78 °F (2009)
Min Temperature 35 °F 32 °F 22 °F (1989)
Degree Days  
Heating Degree Days 22    
Moisture  
Dew Point 28 °F    
Average Humidity 59    
Maximum Humidity 83    
Minimum Humidity 41    
Precipitation  
Precipitation 0.00 in - - ()
Sea Level Pressure  
Sea Level Pressure 30.08 in    
Wind  
Wind Speed 7 mph (NNW)    
Max Wind Speed 17 mph    
Max Gust Speed 29 mph    
Visibility 10 miles    
Events      
Averages and records for this station are not official NWS values.
T = Trace of Precipitation, MM = Missing Value Source: NWS Daily Summary

Daily Weather History Graph

Daily Weather History Graph

Search for Another Location

Airport:

Trip Planner

Search our weather history database for the weather conditions in past years. The results will help you decide how hot, cold, wet, or windy it might be!

Date:

Astronomy

Mar. 07, 2013 Rise Set
Actual Time 6:30 AM EST 6:09 PM EST
Civil Twilight 6:04 AM EST 6:34 PM EST
Nautical Twilight 5:35 AM EST 7:04 PM EST
Astronomical Twilight 5:05 AM EST 7:34 PM EST
Moon 3:22 AM EST (3/7) 2:00 PM EST (3/7)
Length of Visible Light 12h 30m
Length of Day
11h 38m
Waning Crescent, 20% of the Moon is Illuminated
Mar 7
Waning Crescent
Mar 11
New
Mar 19
First Quarter
Mar 27
Full
Apr 3
Last Quarter

Hourly Weather History & Observations

Time (EST) Temp. Windchill Dew Point Humidity Pressure Visibility Wind Dir Wind Speed Gust Speed Precip Events Conditions
12:15 AM 36.7 °F 31.2 °F 31.8 °F 83% 29.94 in 10.0 mi NNW 6.9 mph 17.3 mph N/A   Clear
12:35 AM 36.7 °F 31.2 °F 31.8 °F 83% 29.94 in 10.0 mi NNW 6.9 mph - N/A   Scattered Clouds
1:15 AM 37.6 °F 30.0 °F 31.1 °F 77% 29.95 in 10.0 mi NNW 11.5 mph 19.6 mph N/A   Overcast
1:35 AM 37.8 °F 31.8 °F 30.7 °F 76% 29.96 in 10.0 mi NNW 8.1 mph - N/A   Overcast
1:55 AM 37.6 °F 32.3 °F 30.6 °F 76% 29.96 in 10.0 mi NNW 6.9 mph - N/A   Scattered Clouds
2:15 AM 37.6 °F 32.3 °F 30.7 °F 76% 29.96 in 10.0 mi NNW 6.9 mph - N/A   Clear
2:35 AM 36.5 °F 32.7 °F 30.0 °F 77% 29.96 in 10.0 mi NW 4.6 mph - N/A   Clear
2:55 AM 36.5 °F 32.7 °F 30.2 °F 78% 29.97 in 10.0 mi NW 4.6 mph - N/A   Clear
3:15 AM 36.5 °F 31.8 °F 30.0 °F 77% 29.98 in 10.0 mi NW 5.8 mph - N/A   Clear
3:35 AM 36.5 °F 30.3 °F 29.3 °F 75% 29.99 in 10.0 mi NW 8.1 mph - N/A   Clear
3:55 AM 36.5 °F 30.3 °F 28.8 °F 74% 30.01 in 10.0 mi NW 8.1 mph - N/A   Clear
4:15 AM 36.5 °F 29.7 °F 28.4 °F 72% 30.01 in 10.0 mi NNW 9.2 mph - N/A   Clear
4:35 AM 36.5 °F 31.0 °F 28.6 °F 73% 30.02 in 10.0 mi NNW 6.9 mph - N/A   Clear
4:55 AM 36.5 °F 32.7 °F 28.8 °F 74% 30.03 in 10.0 mi NW 4.6 mph - N/A   Scattered Clouds
5:15 AM 36.5 °F 30.3 °F 28.4 °F 72% 30.02 in 10.0 mi NNW 8.1 mph - N/A   Overcast
5:35 AM 36.5 °F 31.0 °F 28.4 °F 72% 30.03 in 10.0 mi NNW 6.9 mph - N/A   Mostly Cloudy
5:55 AM 35.8 °F 31.9 °F 28.6 °F 75% 30.04 in 10.0 mi NW 4.6 mph - N/A   Scattered Clouds
6:15 AM 35.1 °F - 28.4 °F 77% 30.05 in 10.0 mi Calm Calm - N/A   Clear
6:35 AM 35.1 °F 31.0 °F 28.9 °F 78% 30.06 in 10.0 mi NNW 4.6 mph - N/A   Clear
6:55 AM 35.1 °F 31.0 °F 28.4 °F 77% 30.06 in 10.0 mi NNW 4.6 mph - N/A   Clear
7:15 AM 35.6 °F 30.7 °F 28.8 °F 76% 30.06 in 10.0 mi NNW 5.8 mph - N/A   Clear
7:35 AM 36.5 °F 31.8 °F 28.9 °F 74% 30.08 in 10.0 mi NNW 5.8 mph - N/A   Clear
7:55 AM 37.6 °F 33.1 °F 29.3 °F 72% 30.09 in 10.0 mi NNW 5.8 mph - N/A   Clear
8:15 AM 38.3 °F 32.5 °F 29.1 °F 70% 30.10 in 10.0 mi North 8.1 mph - N/A   Clear
8:35 AM 40.1 °F 34.7 °F 30.2 °F 68% 30.10 in 10.0 mi NNW 8.1 mph 16.1 mph N/A   Clear
8:55 AM 42.8 °F 37.0 °F 31.1 °F 63% 30.11 in 10.0 mi NNW 10.4 mph 19.6 mph N/A   Clear
9:15 AM 45.1 °F 40.3 °F 31.5 °F 59% 30.11 in 10.0 mi North 9.2 mph 20.7 mph N/A   Clear
9:35 AM 45.1 °F 40.8 °F 31.1 °F 58% 30.12 in 10.0 mi NW 8.1 mph 28.8 mph N/A   Clear
9:55 AM 45.1 °F 38.4 °F 30.0 °F 55% 30.12 in 10.0 mi North 15.0 mph 23.0 mph N/A   Clear
10:15 AM 45.1 °F 37.9 °F 28.6 °F 52% 30.11 in 10.0 mi North 17.3 mph 27.6 mph N/A   Clear
10:35 AM 45.5 °F 39.9 °F 27.9 °F 50% 30.11 in 10.0 mi NNW 11.5 mph 25.3 mph N/A   Clear
10:55 AM 46.4 °F 41.9 °F 28.2 °F 49% 30.11 in 10.0 mi North 9.2 mph 24.2 mph N/A   Scattered Clouds
11:15 AM 47.5 °F - 28.4 °F 48% 30.11 in 10.0 mi NNW 13.8 mph 24.2 mph N/A   Scattered Clouds
11:35 AM 47.5 °F - 27.3 °F 46% 30.11 in 10.0 mi North 11.5 mph 21.9 mph N/A   Clear
11:55 AM 49.8 °F - 28.6 °F 44% 30.11 in 10.0 mi NNW 10.4 mph 23.0 mph N/A   Scattered Clouds
12:15 PM 50.0 °F - 27.7 °F 42% 30.09 in 10.0 mi WNW 8.1 mph 25.3 mph N/A   Scattered Clouds
12:35 PM 50.0 °F - 27.0 °F 41% 30.09 in 10.0 mi NNW 10.4 mph 18.4 mph N/A   Clear
12:55 PM 50.0 °F - 27.0 °F 41% 30.08 in 10.0 mi NNW 10.4 mph 21.9 mph N/A   Clear
1:15 PM 50.0 °F - 27.9 °F 42% 30.07 in 10.0 mi WNW 4.6 mph - N/A   Scattered Clouds
1:35 PM 50.0 °F - 27.7 °F 42% 30.07 in 10.0 mi NNW 9.2 mph - N/A   Mostly Cloudy
1:55 PM 50.0 °F - 28.4 °F 43% 30.07 in 10.0 mi NNW 6.9 mph 18.4 mph N/A   Mostly Cloudy
2:15 PM 50.0 °F - 29.3 °F 45% 30.07 in 10.0 mi NW 5.8 mph 17.3 mph N/A   Mostly Cloudy
2:35 PM 50.0 °F - 28.8 °F 44% 30.08 in 10.0 mi NNW 4.6 mph 21.9 mph N/A   Overcast
2:55 PM 50.0 °F - 28.9 °F 44% 30.08 in 10.0 mi NW 6.9 mph 19.6 mph N/A   Overcast
3:15 PM 50.0 °F - 29.8 °F 46% 30.09 in 10.0 mi NW 5.8 mph - N/A   Overcast
3:35 PM 47.5 °F - 27.7 °F 46% 30.09 in 10.0 mi NW 8.1 mph - N/A   Overcast
3:55 PM 47.5 °F - 27.3 °F 46% 30.09 in 10.0 mi NW 5.8 mph - N/A   Overcast
4:15 PM 48.9 °F - 28.8 °F 46% 30.10 in 10.0 mi NW 4.6 mph - N/A   Overcast
4:35 PM 47.5 °F - 27.1 °F 45% 30.10 in 10.0 mi WNW 9.2 mph - N/A   Scattered Clouds
4:55 PM 47.5 °F - 27.0 °F 45% 30.11 in 10.0 mi NNW 8.1 mph 19.6 mph N/A   Scattered Clouds
5:15 PM 46.2 °F 43.3 °F 25.7 °F 45% 30.12 in 10.0 mi NNW 5.8 mph - N/A   Scattered Clouds
5:35 PM 45.1 °F 40.8 °F 25.3 °F 46% 30.12 in 10.0 mi NNW 8.1 mph 17.3 mph N/A   Clear
5:55 PM 45.1 °F 40.8 °F 25.9 °F 47% 30.13 in 10.0 mi NW 8.1 mph - N/A   Scattered Clouds
6:15 PM 45.1 °F 42.8 °F 25.9 °F 47% 30.14 in 10.0 mi NNW 4.6 mph - N/A   Scattered Clouds
6:35 PM 45.1 °F 43.7 °F 25.9 °F 47% 30.15 in 10.0 mi NNW 3.5 mph - N/A   Overcast
6:55 PM 45.1 °F - 28.2 °F 52% 30.16 in 10.0 mi Calm Calm - N/A   Overcast
8:35 PM 41.2 °F 39.2 °F 25.5 °F 54% 30.18 in 10.0 mi NW 3.5 mph - N/A   Clear
8:55 PM 40.1 °F 38.0 °F 25.0 °F 55% 30.18 in 10.0 mi NW 3.5 mph - N/A   Clear
9:15 PM 39.2 °F - 24.6 °F 56% 30.18 in 10.0 mi Calm Calm - N/A   Clear
9:35 PM 38.8 °F 36.5 °F 24.8 °F 57% 30.18 in 10.0 mi NW 3.5 mph - N/A   Clear
9:55 PM 38.3 °F 34.8 °F 24.6 °F 58% 30.18 in 10.0 mi NW 4.6 mph - N/A   Clear
10:15 PM 38.3 °F - 24.3 °F 57% 30.18 in 10.0 mi Calm Calm - N/A   Clear
10:35 PM 37.9 °F 35.5 °F 24.3 °F 58% 30.18 in 10.0 mi WNW 3.5 mph - N/A   Clear
10:55 PM 37.6 °F - 24.1 °F 58% 30.18 in 10.0 mi Calm Calm - N/A   Clear
11:15 PM 37.6 °F - 24.8 °F 60% 30.18 in 10.0 mi Calm Calm - N/A   Clear
11:35 PM 36.5 °F - 24.6 °F 62% 30.18 in 10.0 mi Calm Calm - N/A   Clear
11:55 PM 36.5 °F - 24.6 °F 62% 30.18 in 10.0 mi Calm Calm - N/A   Clear